Santo Domingo, Dominican Republic
Current Conditions -  °F | °C
As of 4:00 PM on Friday 24 Oct 2014 (Local Time) from MDSD Reporting Station
Scattered Clouds Scattered Clouds  
Wind Chill: 88°   Ceiling: Unl
Heat Index: 96°   Visibility: 6mi
Dew Point: 73°   Wind: 8mph
Humidity: 62%   Direction: 160°SSE
Pressure: 29.83"   Gusts: NA
Location:  18.48°N, 69.91°W
Report Text: MDSD 242000Z 16007KT 9999 SCT025 SCT300 31/23 Q1010
Loading
Personal Weather Stations






























Interactive Weather Map New forecast layout! Learn more

10-Day Weather Forecast

Advertisements
Track Severe Weather on mobile